星链-1623 (STARLINK-1623 )

导读 | 星芒AI

STARLINK-1623 是 SpaceX 旗下星链(Starlink)卫星互联网项目中的第 1623 颗卫星,属于低地球轨道(LEO)通信卫星群。该卫星旨在为全球用户提供高速、低延迟的互联网服务,特别是在偏远和网络覆盖不足的地区。它采用先进的推进和通信技术,支持星间链路,提升网络效率。作为星链计划的一部分,STARLINK-1623 有助于构建更广泛的全球宽带网络,推动互联网普及与数字连接。

基本信息
目录编号:
46129
目录名称:
STARLINK-1623
国际标识:
2020-057N
轨道中心:
EARTH
卫星名称:
星链-1623
卫星全名:
星链-1623 (STARLINK-1623 )
卫星状态:
在轨 (已飞行1946 天)
发射日期:
2020-08-18 UTC
国别 :
美国 (US)
星等 :
--
轨道信息
数据来源 国际轨道数据
星历时间: 2025-12-16T08:00:03+0800
8小时前
查看轨道信息
半长轴: 6906.862km
偏心率: 0.0002023
轨道倾角: 53.054°
近地点辐角 91.708°
升交点赤经 292.227°
平近点角 15.005°
近地点: 527.329km
远地点: 530.125km
周期: 95.210分钟
每日圈数: 15.124522
详细信息
固有亮度:
5
最大亮度:
2.5
卫星平台:
Starlink V1.0
覆盖范围:
全球
运营商:
太空探索技术公司
运营商所在国:
美国
制造商(研发单位):
太空探索技术公司
制造商所在国:
美国
使用方式:
暂无
卫星简介
星链(Starlink)计划是由太空探索技术公司(SpaceX)提出的一个巨型低轨卫星互联网星座项目,计划在2019年至2024年间在太空搭建由约1.2万颗卫星组成的“星链”网络,其中1584颗将部署在地球上空550千米处的近地轨道,并从2020年开始工作。该卫星仍在工作。
2D轨道图
3D轨道图
轨道高度分析图
轨道倾角分析图
轨道综合分析图
查看轨道综合分析图